When you browse on this site, cookies collect data to enhance your experience and personalize the content and advertising you see.
Visit our Privacy Policy to learn more. By continuing to use the site, you agree to this use of cookies and data.

Hourly Weather Sankt Polten

Today, 10 August, Monday

Time Temperature Precipitation Wind Pressure Humidity
00:00 +22°C° 0 mm 1 mps 737 mmHg 71%
01:00 +22°C° 0 mm 1 mps 737 mmHg 73%
02:00 +21°C° 0 mm 1 mps 736 mmHg 74%
03:00 +21°C° 0 mm 1 mps 736 mmHg 75%
04:00 +21°C° 0 mm 1 mps 736 mmHg 76%
05:00 +22°C° 0 mm 1 mps 736 mmHg 75%
06:00 +21°C° 0 mm 0 mps 736 mmHg 74%
07:00 +22°C° 0 mm 0 mps 736 mmHg 72%
08:00 +26°C° 0 mm 1 mps 736 mmHg 66%
09:00 +28°C° 0 mm 1 mps 736 mmHg 60%
10:00 +30°C° 0 mm 2 mps 736 mmHg 55%
11:00 +30°C° 0 mm 2 mps 736 mmHg 52%
12:00 +31°C° 0 mm 2 mps 736 mmHg 48%
13:00 +32°C° 0 mm 2 mps 736 mmHg 45%
14:00 +33°C° 0 mm 3 mps 736 mmHg 46%
15:00 +33°C° 0 mm 3 mps 736 mmHg 47%
16:00 +33°C° 0 mm 3 mps 736 mmHg 48%
17:00 +30°C° 0 mm 2 mps 736 mmHg 56%
18:00 +28°C° 0 mm 2 mps 735 mmHg 64%
19:00 +25°C° 0 mm 2 mps 735 mmHg 72%
20:00 +25°C° 0 mm 2 mps 736 mmHg 73%
21:00 +24°C° 0 mm 2 mps 736 mmHg 74%
22:00 +23°C° 0 mm 2 mps 736 mmHg 75%
23:00 +22°C° 0 mm 1 mps 736 mmHg 76%

Tomorrow, 11 August, Tuesday

Time Temperature Precipitation Wind Pressure Humidity
00:00 +22°C° 0 mm 1 mps 736 mmHg 78%
01:00 +21°C° 0 mm 1 mps 736 mmHg 80%
02:00 +21°C° 0 mm 1 mps 736 mmHg 80%
03:00 +21°C° 0 mm 1 mps 736 mmHg 81%
04:00 +20°C° 0 mm 1 mps 736 mmHg 82%
05:00 +21°C° 0 mm 1 mps 736 mmHg 80%
06:00 +22°C° 0 mm 1 mps 736 mmHg 78%
07:00 +24°C° 0 mm 1 mps 737 mmHg 76%
08:00 +25°C° 0 mm 1 mps 737 mmHg 70%
09:00 +27°C° 0 mm 2 mps 737 mmHg 65%
10:00 +29°C° 0 mm 2 mps 737 mmHg 60%
11:00 +29°C° 0 mm 2 mps 737 mmHg 57%
12:00 +30°C° 0 mm 3 mps 737 mmHg 55%
13:00 +31°C° 0 mm 3 mps 737 mmHg 52%
14:00 +31°C° 0.2 mm 3 mps 737 mmHg 55%
15:00 +30°C° 0.2 mm 3 mps 737 mmHg 57%
16:00 +30°C° 0.2 mm 3 mps 736 mmHg 60%
17:00 +28°C° 0.1 mm 3 mps 736 mmHg 66%
18:00 +26°C° 0.1 mm 2 mps 736 mmHg 71%
19:00 +25°C° 0.1 mm 2 mps 736 mmHg 77%
20:00 +24°C° 0.2 mm 2 mps 737 mmHg 79%
21:00 +22°C° 0.2 mm 1 mps 737 mmHg 82%
22:00 +21°C° 0.2 mm 1 mps 737 mmHg 84%
23:00 +21°C° 0.2 mm 1 mps 737 mmHg 85%

Day after tomorrow, 12 August, Wednesday

Time Temperature Precipitation Wind Pressure Humidity
00:00 +21°C° 0.2 mm 1 mps 737 mmHg 87%
01:00 +20°C° 0.2 mm 1 mps 737 mmHg 88%
02:00 +20°C° 0 mm 1 mps 737 mmHg 89%
03:00 +20°C° 0 mm 1 mps 737 mmHg 90%
04:00 +19°C° 0 mm 1 mps 737 mmHg 91%
05:00 +20°C° 0 mm 1 mps 737 mmHg 89%
06:00 +21°C° 0 mm 1 mps 737 mmHg 87%
07:00 +22°C° 0 mm 1 mps 737 mmHg 85%
08:00 +24°C° 0.1 mm 1 mps 738 mmHg 79%
09:00 +25°C° 0.1 mm 2 mps 738 mmHg 73%
10:00 +27°C° 0.1 mm 2 mps 738 mmHg 67%
11:00 +28°C° 0.2 mm 2 mps 738 mmHg 63%
12:00 +29°C° 0.2 mm 3 mps 738 mmHg 59%
13:00 +30°C° 0.2 mm 3 mps 737 mmHg 56%
14:00 +30°C° 0 mm 3 mps 737 mmHg 55%
15:00 +30°C° 0 mm 3 mps 737 mmHg 54%
16:00 +30°C° 0 mm 3 mps 737 mmHg 53%
17:00 +29°C° 0 mm 3 mps 737 mmHg 60%
18:00 +27°C° 0 mm 2 mps 737 mmHg 67%
19:00 +25°C° 0 mm 2 mps 737 mmHg 74%
20:00 +23°C° 0 mm 2 mps 737 mmHg 76%
21:00 +21°C° 0 mm 2 mps 737 mmHg 77%
22:00 +20°C° 0 mm 2 mps 737 mmHg 78%
23:00 +21°C° 0 mm 1 mps 737 mmHg 79%

13 August, Thursday

Time Temperature Precipitation Wind Pressure Humidity
00:00 +20°C° 0 mm 1 mps 737 mmHg 80%
01:00 +20°C° 0 mm 1 mps 737 mmHg 80%
02:00 +19°C° 0 mm 1 mps 737 mmHg 82%
03:00 +19°C° 0 mm 1 mps 737 mmHg 84%
04:00 +19°C° 0 mm 1 mps 737 mmHg 85%
05:00 +20°C° 0 mm 1 mps 737 mmHg 82%
06:00 +21°C° 0 mm 1 mps 737 mmHg 80%
07:00 +22°C° 0 mm 1 mps 737 mmHg 77%
08:00 +24°C° 0 mm 1 mps 737 mmHg 72%
09:00 +26°C° 0 mm 1 mps 737 mmHg 68%
10:00 +28°C° 0 mm 2 mps 737 mmHg 63%
11:00 +29°C° 0.3 mm 2 mps 737 mmHg 61%
12:00 +30°C° 0.3 mm 2 mps 736 mmHg 59%
13:00 +31°C° 0.3 mm 1 mps 736 mmHg 57%
14:00 +31°C° 0.5 mm 1 mps 736 mmHg 57%
15:00 +31°C° 0.5 mm 1 mps 736 mmHg 58%
16:00 +29°C° 0.5 mm 0 mps 735 mmHg 58%
17:00 +29°C° 0.3 mm 1 mps 735 mmHg 65%
18:00 +27°C° 0.3 mm 1 mps 735 mmHg 72%
19:00 +25°C° 0.3 mm 1 mps 735 mmHg 78%
20:00 +24°C° 0.6 mm 1 mps 735 mmHg 82%
21:00 +23°C° 0.6 mm 1 mps 735 mmHg 85%
22:00 +22°C° 0.6 mm 1 mps 736 mmHg 88%
23:00 +22°C° 0.2 mm 1 mps 735 mmHg 89%

14 August, Friday

Time Temperature Precipitation Wind Pressure Humidity
00:00 +22°C° 0.2 mm 1 mps 735 mmHg 89%
01:00 +21°C° 0.2 mm 1 mps 735 mmHg 89%
02:00 +21°C° 0.4 mm 1 mps 735 mmHg 90%
03:00 +21°C° 0.4 mm 1 mps 735 mmHg 91%
04:00 +20°C° 0.4 mm 1 mps 735 mmHg 92%
05:00 +21°C° 0.6 mm 1 mps 735 mmHg 91%
06:00 +22°C° 0.6 mm 1 mps 735 mmHg 91%
07:00 +22°C° 0.6 mm 1 mps 735 mmHg 90%
08:00 +23°C° 0.3 mm 1 mps 735 mmHg 88%
09:00 +24°C° 0.3 mm 2 mps 735 mmHg 86%
10:00 +24°C° 0.3 mm 2 mps 735 mmHg 85%
11:00 +25°C° 0.2 mm 2 mps 735 mmHg 82%
12:00 +25°C° 0.2 mm 3 mps 735 mmHg 80%
13:00 +26°C° 0.2 mm 3 mps 735 mmHg 78%
14:00 +25°C° 0.3 mm 3 mps 735 mmHg 80%
15:00 +25°C° 0.3 mm 3 mps 734 mmHg 81%
16:00 +25°C° 0.3 mm 3 mps 734 mmHg 82%
17:00 +24°C° 0.5 mm 2 mps 734 mmHg 86%
18:00 +23°C° 0.5 mm 2 mps 735 mmHg 89%
19:00 +22°C° 0.5 mm 1 mps 735 mmHg 92%
20:00 +22°C° 0.5 mm 1 mps 735 mmHg 93%
21:00 +21°C° 0.5 mm 1 mps 735 mmHg 93%
22:00 +19°C° 0.5 mm 2 mps 735 mmHg 94%
23:00 +19°C° 0.3 mm 2 mps 735 mmHg 94%

15 August, Saturday

Time Temperature Precipitation Wind Pressure Humidity
00:00 +19°C° 0.3 mm 2 mps 735 mmHg 94%
01:00 +19°C° 0.3 mm 2 mps 735 mmHg 94%
02:00 +19°C° 0.1 mm 2 mps 735 mmHg 94%
03:00 +19°C° 0.1 mm 2 mps 735 mmHg 94%
04:00 +19°C° 0.1 mm 2 mps 735 mmHg 94%
05:00 +19°C° 0 mm 2 mps 735 mmHg 93%
06:00 +20°C° 0 mm 2 mps 735 mmHg 93%
07:00 +20°C° 0 mm 2 mps 735 mmHg 92%
08:00 +21°C° 0 mm 2 mps 735 mmHg 87%
09:00 +23°C° 0 mm 2 mps 736 mmHg 82%
10:00 +24°C° 0 mm 2 mps 736 mmHg 77%
11:00 +25°C° 0.2 mm 3 mps 735 mmHg 74%
12:00 +26°C° 0.2 mm 3 mps 735 mmHg 71%
13:00 +27°C° 0.2 mm 3 mps 735 mmHg 68%
14:00 +27°C° 0.4 mm 3 mps 735 mmHg 70%
15:00 +26°C° 0.4 mm 3 mps 735 mmHg 73%
16:00 +26°C° 0.4 mm 3 mps 735 mmHg 75%
17:00 +25°C° 0.5 mm 3 mps 735 mmHg 81%
18:00 +23°C° 0.5 mm 2 mps 735 mmHg 86%
19:00 +21°C° 0.5 mm 2 mps 734 mmHg 91%
20:00 +21°C° 0 mm 2 mps 735 mmHg 91%
21:00 +20°C° 0 mm 2 mps 735 mmHg 92%
22:00 +20°C° 0 mm 2 mps 735 mmHg 92%
23:00 +19°C° 0.1 mm 2 mps 735 mmHg 93%
Show more